Dewpoint
-1 -1 -1 -0 0 -1 -2 -3 -4 -4 -4 -4 -5 -6 -6 -6 -6 -6 -6 -6 -6 -7 -8 -8 -9 -9 -10 -11 -12 -12 -12 -12 -12 -13 -10 -3 0 1 2 3 4 5
-2 -2 -2 -2 -1 -1 -2 -2 -3 -4 -4 -4 -5 -6 -6 -6 -6 -6 -6 -6 -7 -7 -8 -8 -8 -9 -9 -8 -8 -9 -11 -12 -12 -12 -11 -8 -4 -1 0 2 4 4
-3 -4 -4 -4 -4 -2 -1 -2 -3 -3 -3 -4 -5 -5 -5 -5 -6 -6 -6 -6 -7 -8 -8 -8 -8 -8 -8 -7 -5 -6 -7 -8 -10 -11 -10 -9 -7 -4 -2 0 2 5
-4 -5 -5 -5 -5 -3 -2 -2 -3 -3 -3 -3 -4 -5 -5 -5 -5 -5 -6 -6 -7 -8 -8 -7 -7 -7 -7 -6 -2 -1 -2 -3 -4 -6 -8 -10 -9 -6 -3 0 2 5
-6 -6 -6 -6 -5 -5 -3 -3 -2 -3 -3 -3 -4 -4 -4 -5 -5 -5 -6 -7 -8 -8 -7 -6 -6 -5 -5 -5 -2 1 2 2 1 1 -1 -5 -9 -8 -4 1 4 4
-6 -5 -6 -5 -5 -5 -4 -4 -3 -2 -2 -3 -4 -4 -4 -4 -5 -6 -6 -8 -8 -8 -7 -6 -5 -4 -4 -4 -4 -1 1 3 3 3 3 1 -2 -5 -5 -0 4 5
-6 -5 -5 -5 -5 -5 -4 -3 -2 -2 -2 -3 -3 -4 -4 -4 -5 -6 -7 -8 -8 -7 -6 -5 -4 -4 -3 -2 -2 -2 -1 1 2 3 3 2 2 1 -2 -1 3 6
-5 -5 -6 -5 -5 -5 -4 -4 -3 -2 -2 -2 -3 -3 -4 -5 -6 -7 -8 -8 -8 -6 -5 -5 -4 -3 -2 -1 -1 -1 -1 0 2 2 3 3 2 2 1 1 2 4
-5 -5 -5 -5 -6 -5 -4 -4 -3 -2 -2 -3 -3 -4 -4 -6 -7 -9 -9 -8 -7 -5 -4 -4 -4 -3 -1 -0 -0 0 -0 0 1 2 2 2 2 2 2 2 1 1
-5 -5 -5 -5 -5 -5 -4 -4 -3 -2 -2 -3 -3 -4 -6 -8 -9 -9 -8 -6 -5 -5 -4 -4 -3 -2 -1 0 0 1 0 0 1 2 2 2 2 2 2 2 2 2
-4 -5 -4 -4 -4 -3 -3 -2 -2 -2 -2 -3 -4 -6 -7 -8 -9 -8 -6 -5 -4 -3 -3 -3 -2 -1 0 1 0 1 0 0 1 2 2 2 2 2 2 2 2 2
-3 -4 -4 -3 -2 -2 -1 -1 -1 -1 -2 -4 -5 -7 -8 -8 -7 -6 -5 -4 -3 -3 -3 -2 -1 -0 -0 0 0 0 0 0 0 1 2 2 2 2 2 2 2 2
-3 -3 -2 -1 -1 -0 -0 -0 -1 -1 -3 -5 -7 -7 -7 -6 -5 -4 -4 -3 -4 -4 -3 -2 -1 -0 -0 0 0 0 1 1 1 1 1 1 2 2 2 2 2 2
-2 -1 0 1 1 1 1 1 -0 -2 -4 -6 -7 -6 -5 -4 -3 -3 -3 -3 -3 -3 -2 -1 -1 -1 -0 0 0 1 1 1 1 1 1 1 1 2 2 2 2 2
-0 1 2 2 2 2 1 1 -0 -2 -4 -6 -5 -4 -3 -3 -3 -2 -2 -2 -2 -2 -2 -2 -2 -2 -2 -2 -1 0 1 1 1 1 1 1 1 1 1 2 2 2
2 2 3 3 3 2 2 0 -1 -3 -5 -5 -4 -3 -2 -2 -2 -1 -1 -2 -2 -2 -2 -3 -3 -4 -4 -5 -4 -3 -1 0 0 0 0 0 0 1 1 1 1 2
3 3 4 4 3 2 1 -0 -3 -4 -4 -3 -2 -2 -1 -1 -2 -2 -2 -2 -3 -3 -3 -3 -3 -4 -5 -6 -7 -6 -3 -2 -0 0 0 0 1 1 1 1 1 1
4 4 4 3 3 2 -0 -2 -3 -3 -2 -2 -1 -1 -1 -2 -2 -3 -3 -3 -3 -3 -3 -3 -3 -4 -5 -7 -7 -5 -4 -3 -3 -2 -1 -0 0 0 0 0 0 -0
4 4 3 2 1 0 -1 -2 -2 -2 -1 -2 -1 -2 -2 -3 -3 -3 -3 -3 -3 -4 -4 -4 -4 -5 -6 -7 -6 -4 -4 -3 -3 -3 -3 -2 -2 -1 -1 -0 -0 -0
3 2 1 1 -0 -1 -2 -2 -2 -2 -2 -1 -2 -2 -3 -3 -3 -3 -3 -3 -3 -4 -4 -4 -5 -6 -6 -5 -4 -3 -3 -3 -3 -3 -3 -3 -3 -3 -2 -2 -2 -2
1 1 1 -0 -1 -2 -3 -3 -2 -2 -2 -2 -2 -3 -3 -3 -3 -3 -4 -4 -4 -4 -4 -5 -5 -6 -5 -4 -3 -3 -2 -2 -2 -2 -2 -2 -3 -3 -3 -3 -3 -3
0 -0 -1 -2 -3 -3 -3 -3 -2 -2 -2 -2 -2 -3 -3 -4 -4 -4 -4 -4 -5 -5 -5 -5 -5 -4 -4 -4 -4 -3 -3 -3 -3 -3 -3 -3 -3 -3 -3 -3 -3 -3
-1 -2 -3 -4 -4 -4 -3 -3 -2 -3 -2 -2 -3 -3 -3 -3 -4 -4 -5 -5 -5 -5 -5 -5 -5 -5 -4 -4 -4 -4 -4 -3 -3 -3 -4 -3 -4 -4 -4 -4 -3 -3
-2 -3 -4 -4 -4 -4 -4 -3 -3 -3 -3 -3 -3 -3 -4 -4 -5 -5 -5 -5 -5 -5 -5 -5 -5 -5 -4 -4 -4 -4 -4 -4 -4 -4 -4 -4 -4 -4 -4 -4 -4 -4
-3 -4 -5 -5 -5 -5 -4 -4 -4 -4 -4 -4 -4 -4 -5 -5 -5 -5 -6 -6 -6 -6 -6 -5 -5 -5 -5 -5 -5 -5 -4 -4 -4 -4 -5 -5 -5 -5 -5 -5 -5 -4
-6 -6 -6 -5 -5 -5 -6 -6 -5 -5 -4 -4 -5 -5 -6 -6 -7 -9 -10 -9 -8 -7 -6 -5 -5 -5 -5 -5 -5 -5 -5 -5 -5 -5 -5 -5 -5 -5 -5 -5 -5 -4
Wind_Speed
15 15 15 15 15 15 15 14 13 12 11 10 9 9 9 10 11 13 14 15 17 17 18 18 19 20 19 18 16 16 17 19 20 21 23 26 28 29 29 28 28 29
15 15 15 15 16 17 17 16 15 14 13 12 11 11 11 12 13 14 15 16 17 18 19 20 20 20 20 18 17 16 15 16 19 21 23 25 27 29 30 30 29 29
15 14 14 14 15 16 17 18 17 16 14 13 13 13 13 14 15 15 16 17 18 19 20 21 21 21 21 19 18 17 17 17 16 17 21 24 26 27 28 29 29 28
14 13 13 13 14 15 17 18 18 17 15 14 14 15 15 16 16 17 18 19 19 20 21 21 22 23 22 21 19 19 19 19 18 16 17 20 23 25 25 25 27 27
14 13 13 12 13 15 17 18 18 17 16 16 16 16 17 17 17 18 19 19 20 21 22 22 23 23 23 22 20 20 20 20 20 19 19 19 20 23 25 25 25 27
15 14 13 13 13 14 16 17 18 17 17 17 17 17 18 17 18 18 19 20 21 22 22 23 23 23 23 22 21 21 21 21 21 20 21 22 21 20 23 25 24 25
16 14 14 14 14 15 16 17 18 18 18 18 18 18 18 18 19 19 20 20 21 22 23 23 24 24 24 23 22 22 21 21 22 22 22 23 23 22 21 22 23 23
16 16 15 15 15 16 17 17 18 18 18 18 18 18 18 18 19 19 20 21 22 23 23 24 24 25 24 23 22 23 23 23 22 22 22 22 23 24 23 23 24 25
18 17 17 17 17 17 18 18 18 18 18 18 18 18 18 18 19 20 21 22 22 22 23 23 24 24 24 23 22 24 25 25 23 22 23 23 23 24 24 24 25 25
19 19 18 18 18 18 19 18 18 18 18 18 18 18 18 18 19 20 21 21 22 23 23 24 24 24 23 23 24 25 26 26 24 23 23 23 24 24 25 25 26 27
20 20 20 19 19 19 19 19 18 18 18 17 16 16 17 18 19 20 20 21 22 23 24 24 24 23 23 24 25 27 28 28 26 24 24 25 25 25 25 25 26 27
22 22 21 20 19 19 18 18 18 17 16 15 15 15 16 18 19 19 20 21 22 23 24 24 23 23 24 25 26 27 28 28 26 26 26 27 28 28 28 27 26 26
22 22 21 20 19 18 18 17 16 15 14 13 14 15 16 17 18 19 20 22 23 23 22 21 20 21 21 22 23 24 25 26 27 27 28 29 28 28 28 29 29 28
22 21 20 19 18 17 17 16 15 13 13 13 14 15 16 17 18 20 21 21 21 21 22 22 23 23 24 24 23 22 22 23 25 27 29 30 30 29 29 29 29 29
21 21 20 18 17 17 16 15 14 12 13 13 14 15 16 17 19 20 20 21 22 23 25 26 27 28 29 30 30 29 28 27 28 29 31 33 34 34 34 33 32 31
21 21 19 18 17 16 15 14 13 12 13 13 14 15 16 18 19 19 20 22 24 26 28 29 31 32 32 33 34 34 35 34 34 34 34 35 37 38 38 38 37 36
22 21 19 18 17 16 15 13 12 12 12 13 14 16 17 18 19 20 22 24 26 28 30 32 33 34 35 37 36 33 33 35 37 38 37 37 38 39 40 41 41 40
22 21 18 17 16 14 12 11 10 11 12 14 16 17 19 20 21 23 24 26 28 29 31 33 34 37 39 39 36 31 29 30 33 36 38 39 40 41 42 43 43 43
22 20 17 16 14 11 10 9 10 12 14 17 18 19 20 21 22 23 25 26 28 29 32 35 37 39 40 38 35 31 30 30 31 33 35 37 39 41 43 44 44 44
20 17 15 13 11 9 9 11 12 14 16 18 19 19 20 21 22 24 25 27 29 32 35 38 39 40 39 36 33 31 31 31 32 34 35 36 37 38 40 42 43 44
17 14 12 11 10 10 11 12 13 14 16 17 18 18 18 20 22 24 26 29 32 35 37 39 40 40 38 35 33 32 32 32 34 35 37 39 40 40 41 42 42 43
15 14 12 10 10 10 10 11 13 14 15 15 15 16 17 20 22 25 28 31 34 36 38 40 40 39 37 35 34 33 34 34 35 36 38 39 40 41 41 42 42 43
16 13 10 9 9 10 10 11 12 12 13 14 16 17 19 22 25 27 30 33 35 37 38 39 39 37 35 35 33 31 31 32 32 34 36 38 40 41 41 42 42 42
13 10 8 9 10 10 10 10 11 13 15 17 18 19 21 23 25 28 31 33 35 36 37 37 37 35 32 31 30 29 30 30 32 34 37 39 41 42 42 43 44 43
11 10 10 10 9 9 9 10 12 14 15 16 17 19 21 24 26 28 30 31 31 32 32 33 33 32 31 29 28 28 29 30 33 36 38 40 40 41 42 42 43 43
9 9 8 7 7 7 8 9 10 10 12 14 17 20 22 24 25 26 27 28 29 31 32 32 33 33 32 29 28 27 28 30 33 36 37 38 38 39 41 41 42 42
Wind_Direction
247 251 255 256 254 251 252 255 257 261 268 275 279 282 287 292 297 303 309 314 318 319 318 317 317 317 315 311 301 291 285 277 268 259 253 252 255 258 258 256 253 255
250 252 254 256 255 254 255 257 260 263 266 271 277 282 287 293 297 302 307 311 313 315 315 315 318 321 320 315 308 299 293 284 275 266 259 254 252 253 256 259 257 256
249 251 253 255 256 255 255 257 261 263 265 269 275 281 286 292 296 300 305 310 313 313 314 317 320 324 323 319 312 304 300 294 284 275 267 261 259 256 254 257 259 259
246 251 254 257 258 257 255 256 260 263 266 269 273 279 285 291 296 301 307 310 312 314 316 320 323 325 324 321 314 308 304 301 295 290 281 270 265 263 260 256 254 256
244 249 253 257 258 258 258 259 261 264 266 269 272 277 283 290 297 303 307 310 312 316 320 323 323 322 322 319 312 304 300 300 298 296 293 286 276 267 263 260 256 254
243 247 254 259 259 259 260 260 261 262 265 268 271 278 284 291 298 302 307 311 315 319 322 322 320 318 317 315 310 301 293 290 291 291 290 290 287 278 267 262 262 262
245 251 257 261 261 260 258 256 258 259 262 267 271 278 285 292 299 304 310 315 318 321 321 320 317 316 314 311 309 305 295 284 282 284 287 288 289 287 277 266 261 263
249 254 258 261 262 263 260 256 255 256 260 266 271 278 286 293 300 307 313 318 319 319 318 316 314 312 311 308 304 302 298 289 281 279 280 284 287 287 285 279 269 263
250 254 257 258 260 262 262 259 258 259 262 267 274 282 289 297 305 312 316 318 317 315 313 311 310 310 308 306 301 298 297 292 286 281 278 278 280 282 284 285 282 276
249 252 253 254 257 260 261 261 261 262 265 270 277 285 294 302 310 314 315 313 312 311 310 309 310 309 306 302 298 296 295 291 287 284 280 278 277 278 280 283 283 282
246 248 249 250 253 255 257 259 262 264 267 273 280 289 298 306 311 312 310 309 308 307 307 307 306 304 301 297 295 295 294 292 287 283 280 278 275 273 276 279 280 281
244 245 245 246 249 252 255 257 261 265 269 276 286 295 302 306 307 307 306 304 303 302 302 302 300 298 297 296 297 297 298 297 293 288 285 281 277 272 271 273 275 278
241 241 242 244 247 250 253 257 261 265 272 281 291 298 301 302 301 301 300 298 298 299 298 296 294 293 294 295 298 299 301 301 297 293 290 286 283 278 274 272 271 271
238 238 238 240 244 248 252 257 261 267 277 287 295 297 298 298 298 297 297 297 297 295 291 288 286 287 288 288 289 291 292 292 290 288 287 285 283 280 276 272 269 267
233 233 234 235 240 243 247 255 261 272 283 289 295 296 295 296 296 296 296 294 292 288 287 287 288 288 289 287 284 281 279 278 278 278 279 279 277 276 274 271 268 266
229 229 230 231 235 238 245 255 264 276 287 292 295 294 293 294 293 292 292 289 288 288 288 290 292 294 296 295 291 284 278 275 275 275 274 274 275 275 274 272 269 266
225 226 226 227 229 235 244 256 269 282 291 293 290 287 287 289 289 287 288 288 289 290 291 293 296 299 303 305 302 293 282 276 274 273 273 272 273 274 274 275 273 271
220 219 219 222 227 237 249 264 278 286 288 284 280 281 285 288 288 288 289 290 291 291 293 296 299 301 305 308 306 301 294 287 281 278 276 273 272 273 273 275 276 276
214 215 217 224 232 244 258 271 279 277 277 276 277 283 289 291 291 290 290 290 290 292 295 298 301 304 307 309 307 303 300 297 293 289 285 280 277 275 274 275 275 277
213 216 219 225 234 247 259 269 273 272 274 276 281 288 292 293 292 290 289 290 292 296 300 301 304 307 309 307 303 300 298 296 294 292 290 287 284 281 279 277 277 278
207 208 212 221 235 252 264 270 271 272 275 280 286 292 293 292 290 289 291 295 299 302 303 304 306 308 308 304 298 296 295 292 290 288 287 286 285 284 283 281 280 279
193 197 207 224 244 257 266 269 270 274 278 281 286 289 290 291 292 295 299 301 302 304 304 305 307 306 304 300 295 292 291 290 289 288 287 287 287 287 286 285 283 281
192 200 215 236 249 251 256 262 265 271 275 279 284 287 290 293 296 299 302 302 304 306 307 307 306 303 300 298 296 294 292 292 292 291 290 290 290 290 289 287 285 283
197 209 224 232 237 242 249 257 265 274 281 286 289 290 293 296 299 301 303 305 307 307 306 305 303 301 300 299 298 296 293 292 291 290 290 290 290 290 288 286 285 283
198 211 220 227 239 252 264 275 284 288 290 291 291 293 297 299 302 305 309 311 312 311 310 309 308 308 306 302 298 294 291 289 288 288 288 290 292 292 290 288 286 283
195 211 224 239 257 279 298 311 315 308 298 296 297 302 306 306 308 316 324 329 330 329 326 322 319 316 314 310 304 298 292 289 288 288 290 293 296 297 295 291 288 285
Height
1520 1521 1521 1522 1523 1523 1523 1524 1524 1524 1525 1525 1525 1526 1526 1526 1526 1526 1526 1526 1525 1525 1525 1525 1524 1523 1523 1522 1522 1521 1520 1520 1519 1520 1520 1520 1521 1521 1521 1522 1523 1523
1518 1519 1520 1520 1521 1522 1522 1522 1523 1523 1524 1524 1524 1524 1524 1525 1524 1524 1524 1524 1524 1523 1523 1522 1522 1521 1520 1519 1519 1519 1518 1518 1517 1517 1517 1517 1518 1518 1518 1519 1520 1520
1516 1516 1517 1518 1519 1520 1520 1521 1521 1522 1522 1523 1523 1523 1523 1523 1523 1523 1523 1522 1522 1521 1521 1520 1519 1518 1518 1517 1517 1516 1516 1516 1515 1515 1515 1514 1515 1515 1515 1516 1516 1517
1513 1514 1515 1516 1517 1517 1518 1518 1519 1520 1521 1521 1521 1521 1521 1521 1522 1521 1521 1520 1520 1519 1518 1517 1516 1516 1515 1515 1514 1514 1513 1513 1513 1513 1512 1512 1512 1512 1512 1513 1513 1513
1510 1511 1512 1513 1514 1515 1515 1516 1517 1517 1518 1519 1519 1519 1519 1519 1519 1519 1519 1518 1518 1517 1516 1515 1514 1514 1513 1513 1512 1511 1511 1511 1510 1510 1510 1510 1509 1509 1509 1509 1509 1510
1508 1509 1510 1511 1511 1512 1513 1513 1514 1515 1516 1516 1517 1517 1517 1517 1517 1517 1517 1516 1515 1514 1513 1513 1512 1512 1511 1511 1510 1510 1509 1508 1508 1508 1508 1507 1507 1506 1506 1506 1506 1507
1505 1506 1507 1508 1509 1510 1510 1511 1512 1512 1513 1514 1514 1514 1515 1515 1515 1514 1514 1513 1512 1512 1511 1511 1510 1509 1509 1508 1508 1507 1507 1506 1506 1506 1505 1505 1504 1504 1503 1503 1503 1503
1503 1504 1505 1505 1506 1507 1507 1508 1509 1510 1510 1511 1511 1512 1512 1512 1512 1511 1511 1510 1510 1509 1509 1508 1508 1507 1507 1506 1505 1505 1504 1504 1503 1503 1502 1502 1502 1501 1501 1501 1500 1500
1501 1502 1502 1503 1503 1504 1504 1505 1506 1507 1508 1508 1509 1509 1509 1509 1509 1508 1508 1507 1507 1507 1506 1506 1506 1505 1504 1504 1503 1502 1501 1501 1501 1500 1500 1499 1499 1499 1498 1498 1498 1497
1498 1499 1500 1500 1500 1501 1502 1502 1503 1504 1505 1506 1506 1506 1506 1506 1506 1505 1505 1505 1504 1504 1504 1503 1503 1502 1502 1501 1501 1500 1499 1498 1498 1497 1497 1496 1496 1496 1496 1495 1495 1494
1496 1496 1497 1497 1498 1499 1499 1500 1501 1502 1502 1503 1503 1504 1503 1503 1503 1503 1502 1502 1502 1501 1501 1501 1500 1500 1499 1499 1498 1497 1496 1495 1494 1494 1493 1493 1493 1492 1492 1492 1492 1491
1493 1493 1494 1495 1496 1496 1497 1498 1498 1499 1500 1500 1501 1501 1500 1500 1500 1500 1500 1499 1499 1499 1498 1498 1497 1497 1497 1496 1495 1494 1493 1492 1491 1491 1490 1489 1489 1489 1488 1488 1488 1488
1490 1491 1492 1493 1494 1495 1495 1496 1496 1497 1497 1498 1498 1498 1498 1498 1497 1497 1497 1497 1496 1496 1495 1495 1494 1494 1493 1493 1492 1491 1490 1489 1488 1487 1486 1486 1485 1485 1484 1484 1484 1484
1488 1489 1490 1491 1492 1493 1493 1494 1494 1495 1495 1495 1496 1495 1495 1495 1495 1495 1494 1494 1494 1493 1492 1491 1491 1490 1490 1489 1488 1487 1487 1485 1484 1483 1482 1481 1481 1480 1480 1479 1479 1479
1486 1487 1488 1490 1490 1491 1491 1492 1492 1493 1493 1493 1493 1493 1493 1493 1492 1492 1491 1491 1490 1489 1489 1488 1488 1488 1487 1487 1485 1484 1482 1481 1480 1479 1478 1477 1476 1475 1475 1475 1474 1474
1484 1486 1487 1488 1488 1489 1490 1490 1491 1491 1491 1491 1490 1490 1490 1490 1490 1489 1488 1488 1487 1486 1486 1485 1485 1485 1484 1483 1482 1480 1478 1477 1475 1474 1473 1472 1471 1470 1469 1469 1469 1469
1483 1485 1486 1487 1487 1488 1488 1489 1489 1489 1489 1488 1488 1488 1488 1487 1487 1486 1485 1485 1484 1483 1483 1482 1481 1481 1480 1479 1477 1476 1474 1472 1470 1469 1468 1467 1466 1465 1464 1463 1463 1463
1482 1483 1485 1486 1486 1486 1487 1487 1487 1487 1487 1487 1486 1486 1486 1485 1485 1484 1483 1482 1481 1480 1479 1478 1477 1477 1475 1474 1472 1470 1469 1468 1466 1464 1463 1462 1461 1460 1459 1458 1458 1457
1481 1482 1484 1484 1485 1485 1485 1485 1485 1485 1485 1485 1484 1484 1484 1483 1482 1481 1480 1479 1478 1477 1476 1474 1473 1472 1471 1469 1467 1465 1465 1463 1461 1460 1458 1457 1456 1455 1454 1453 1452 1452
1481 1482 1483 1483 1483 1484 1484 1483 1484 1484 1483 1483 1483 1482 1481 1480 1479 1478 1477 1476 1475 1474 1472 1470 1469 1468 1466 1464 1463 1461 1460 1459 1457 1455 1453 1451 1450 1449 1449 1447 1447 1446
1479 1481 1481 1482 1482 1483 1483 1482 1482 1482 1482 1481 1480 1480 1479 1478 1477 1476 1474 1473 1472 1470 1468 1466 1465 1463 1462 1460 1459 1457 1456 1454 1452 1450 1448 1446 1445 1444 1443 1442 1441 1441
1478 1479 1480 1481 1482 1481 1481 1481 1480 1480 1479 1479 1478 1477 1477 1476 1474 1473 1472 1470 1469 1467 1465 1462 1460 1459 1457 1456 1454 1453 1451 1449 1447 1445 1443 1441 1439 1438 1437 1435 1435 1434
1475 1477 1479 1480 1480 1479 1479 1478 1478 1477 1477 1477 1476 1476 1474 1473 1472 1471 1469 1467 1465 1463 1461 1458 1456 1454 1453 1451 1449 1448 1446 1444 1442 1440 1438 1435 1433 1432 1431 1429 1428 1428
1474 1476 1477 1477 1477 1477 1476 1475 1475 1475 1475 1474 1474 1473 1472 1471 1470 1468 1466 1464 1461 1459 1457 1454 1451 1449 1448 1446 1445 1444 1442 1440 1438 1435 1433 1430 1428 1426 1424 1422 1421 1421
1473 1475 1475 1475 1475 1474 1474 1473 1473 1473 1473 1472 1472 1471 1470 1468 1467 1465 1463 1460 1458 1456 1453 1450 1447 1444 1443 1441 1440 1439 1438 1436 1434 1430 1427 1425 1422 1419 1417 1415 1414 1413
1472 1473 1473 1473 1473 1472 1471 1471 1470 1470 1470 1470 1470 1469 1467 1466 1464 1461 1459 1456 1454 1451 1448 1446 1442 1439 1438 1436 1435 1434 1433 1431 1429 1425 1422 1419 1416 1413 1410 1408 1407 1406